Simultaneous Nadir Overpasses (SNOs) Predictions

Prediction of SNOs between GOES-16 and LANDSAT-8 Satellite Orbit:

Table of predicted SNOs for the next 14.0 days since TLE Epoch: 3/21/2020
Index Date Time (GOES-16) GOES-16 Lat,Lon LANDSAT-8 Lat,Lon Distance(km) Time Diff (sec)
1 03/22/2020 15:12:24 -0.03, -75.17 -0.01, -75.40 26.08 80
2 03/24/2020 15:02:51 -0.03, -75.16 -0.60, -72.44 309.45 80
3 03/25/2020 03:21:35 0.03, -75.14 -0.50, -77.63 283.11 80
4 03/27/2020 03:12:03 0.03, -75.14 0.15, -74.68 52.84 80
5 03/29/2020 02:59:50 0.04, -75.14 0.75, -71.71 388.87 80
6 03/29/2020 15:18:26 -0.04, -75.15 0.29, -76.88 195.66 80
7 03/31/2020 15:08:53 -0.05, -75.16 -0.31, -73.92 140.64 80
8 04/01/2020 03:30:16 0.05, -75.14 -0.79, -79.11 451.52 80
9 04/02/2020 14:56:41 -0.06, -75.16 -0.97, -70.97 477.20 80
10 04/03/2020 03:18:03 0.06, -75.14 -0.18, -76.15 114.90 80




NCC Satellite Simultaneous Nadir Overpasses (SNOs) Prediction Service
